DELTA 1 DEB, 10838

Orbit data source: Space-Track

DELTA 1 DEB, 10838 is space debris in SSO originally from a launch on Thu, 29 Jul 1976 UTC launched from the Air Force Western Test Range (AFWTR). Debris objects in space refer to the collection of defunct objects orbiting the Earth. Examples of debris include non-operational satellites, rocket bodies, and fragments generated from explosions, collisions, or faulty payload assembly.

Loading next visibility...
Identifier
10838, 1976-077CJ
Orbit
SSO
Country
Flag of USUS
Related business
Manufacturer
Unknown
Mission
Spacecraft
Bus & Motor
Unknown
Mass
Unknown
Launch date (UTC)
1976-07-29 (50 years ago)
Launch vehicle
Unknown
Launch site
Air Force Western Test Range (AFWTR)
Object type
Payload
Rocket body
Debris
Shape & HBR
Unknown shape, 0.2 m
Radar Cross Section
Medium (>0.1 m² and <1 m²)

Expand to show TLE details & history
Last TLE update: 3 days ago

TLE from 3 days ago
0 DELTA 1 DEB
1 10838U 76077CJ  26171.01872396 -.00000035  00000-0  54724-4 0  9995
2 10838 101.5764 182.5605 0040508 154.4087 229.9487 12.40884583259436
Epoch: 2026-06-20T00:26Z
TLE epoch observation values (Epoch: 2026-06-20T00:26:57.750Z)
Latitude
23.50671°
Longitude
-97.50612°
Altitude
1,526.016 km
Speed
7.095 km/s
True Right ascension
11h 49m 53s
True Declination
23° 23' 36"
Sunlit
Object was in daylight at epoch
Visualization orbit readout
Latitude
Unknown
Longitude
Unknown
Altitude
Unknown
Speed
Unknown
Apparent Right ascension
Unknown
Apparent Declination
Unknown
Sunlit
N/A
Visualization observer readout
Local Sidereal Time
13:18:09
Azimuth
Unknown
Elevation
Unknown
Doppler factor
Unknown
Orbital elements
Apogee altitude
1,532.319 km
Perigee altitude
1,468.49 km
Semi-major axis
7,878.541 km
Eccentricity
0.00405
Inclination
101.5764°
RAAN
182.5605°
Arg. of periapsis
154.4087°
True anomaly
229.59454°
Mean anomaly
229.9487°
Eccentric anomaly
229.7715°
Mean motion
3.10366 °/min
Orbital period
115.99 mins
BSTAR
0.000054724
Loading maneuver chart data...
Computing Atmospheric mass density...
Loading historical data...
Loading historical data...
Loading historical data...
Loading historical data...
Loading historical data...
Loading historical data...
Loading historical data...

Documentation

Showing up to 5 results
|